Hourly Weather Dromore

Today, 29 October, Thursday

Time Temperature Precipitation Wind Pressure Humidity
00:00 +3°C° 0 mm 5 mps 741 mmHg 84%
01:00 +3°C° 0 mm 5 mps 741 mmHg 86%
02:00 +4°C° 0 mm 4 mps 741 mmHg 87%
03:00 +4°C° 0 mm 4 mps 742 mmHg 89%
04:00 +5°C° 0.3 mm 4 mps 741 mmHg 91%
05:00 +5°C° 0.3 mm 4 mps 741 mmHg 92%
06:00 +6°C° 0.3 mm 5 mps 741 mmHg 94%
07:00 +7°C° 1.6 mm 5 mps 740 mmHg 95%
08:00 +8°C° 1.6 mm 5 mps 740 mmHg 96%
09:00 +9°C° 1.6 mm 6 mps 739 mmHg 96%
10:00 +9°C° 0.8 mm 6 mps 739 mmHg 95%
11:00 +10°C° 0.8 mm 7 mps 738 mmHg 95%
12:00 +11°C° 0.8 mm 7 mps 738 mmHg 94%
13:00 +12°C° 0.4 mm 8 mps 738 mmHg 93%
14:00 +12°C° 0.4 mm 8 mps 738 mmHg 92%
15:00 +12°C° 0.4 mm 8 mps 738 mmHg 92%
16:00 +12°C° 0.1 mm 7 mps 738 mmHg 92%
17:00 +12°C° 0.1 mm 7 mps 738 mmHg 92%
18:00 +12°C° 0.1 mm 7 mps 738 mmHg 92%
19:00 +12°C° 0.3 mm 7 mps 739 mmHg 92%
20:00 +12°C° 0.3 mm 7 mps 739 mmHg 93%
21:00 +12°C° 0.3 mm 7 mps 740 mmHg 93%
22:00 +12°C° 0.3 mm 7 mps 739 mmHg 93%
23:00 +12°C° 0.3 mm 7 mps 739 mmHg 94%

Tomorrow, 30 October, Friday

Time Temperature Precipitation Wind Pressure Humidity
00:00 +13°C° 0.3 mm 6 mps 739 mmHg 94%
01:00 +13°C° 0.1 mm 6 mps 739 mmHg 93%
02:00 +14°C° 0.1 mm 7 mps 739 mmHg 92%
03:00 +14°C° 0.1 mm 7 mps 740 mmHg 92%
04:00 +14°C° 0.3 mm 6 mps 740 mmHg 92%
05:00 +13°C° 0.3 mm 5 mps 741 mmHg 93%
06:00 +13°C° 0.3 mm 4 mps 742 mmHg 94%
07:00 +12°C° 0.5 mm 4 mps 743 mmHg 93%
08:00 +11°C° 0.5 mm 4 mps 743 mmHg 93%
09:00 +10°C° 0.5 mm 3 mps 744 mmHg 93%
10:00 +10°C° 0 mm 3 mps 745 mmHg 89%
11:00 +11°C° 0 mm 3 mps 746 mmHg 84%
12:00 +11°C° 0 mm 3 mps 746 mmHg 80%
13:00 +11°C° 0 mm 3 mps 747 mmHg 80%
14:00 +10°C° 0 mm 3 mps 747 mmHg 81%
15:00 +10°C° 0 mm 2 mps 748 mmHg 81%
16:00 +10°C° 0 mm 2 mps 748 mmHg 83%
17:00 +9°C° 0 mm 2 mps 748 mmHg 84%
18:00 +9°C° 0 mm 1 mps 748 mmHg 85%
19:00 +9°C° 0 mm 1 mps 748 mmHg 86%
20:00 +9°C° 0 mm 1 mps 748 mmHg 86%
21:00 +8°C° 0 mm 1 mps 749 mmHg 86%
22:00 +8°C° 0 mm 1 mps 748 mmHg 86%
23:00 +8°C° 0 mm 1 mps 748 mmHg 86%

Day after tomorrow, 31 October, Saturday

Time Temperature Precipitation Wind Pressure Humidity
00:00 +8°C° 0 mm 1 mps 747 mmHg 86%
01:00 +8°C° 0 mm 1 mps 746 mmHg 86%
02:00 +7°C° 0 mm 2 mps 746 mmHg 86%
03:00 +7°C° 0 mm 2 mps 745 mmHg 86%
04:00 +8°C° 0.1 mm 3 mps 744 mmHg 89%
05:00 +7°C° 0.1 mm 4 mps 743 mmHg 92%
06:00 +7°C° 0.1 mm 5 mps 742 mmHg 94%
07:00 +8°C° 2 mm 5 mps 741 mmHg 95%
08:00 +8°C° 2 mm 5 mps 740 mmHg 97%
09:00 +9°C° 2 mm 5 mps 739 mmHg 98%
10:00 +10°C° 0.5 mm 5 mps 739 mmHg 93%
11:00 +10°C° 0.5 mm 6 mps 739 mmHg 89%
12:00 +11°C° 0.5 mm 7 mps 738 mmHg 84%
13:00 +10°C° 0.1 mm 7 mps 738 mmHg 83%
14:00 +10°C° 0.1 mm 7 mps 738 mmHg 82%
15:00 +10°C° 0.1 mm 6 mps 737 mmHg 81%
16:00 +9°C° 0 mm 6 mps 737 mmHg 83%
17:00 +8°C° 0 mm 6 mps 737 mmHg 84%
18:00 +7°C° 0 mm 6 mps 737 mmHg 86%
19:00 +7°C° 0 mm 5 mps 736 mmHg 86%
20:00 +7°C° 0 mm 5 mps 736 mmHg 86%
21:00 +7°C° 0 mm 5 mps 735 mmHg 85%
22:00 +6°C° 0 mm 4 mps 734 mmHg 87%
23:00 +7°C° 0 mm 3 mps 733 mmHg 88%

1 November, Sunday

Time Temperature Precipitation Wind Pressure Humidity
00:00 +7°C° 0 mm 2 mps 732 mmHg 89%
01:00 +7°C° 0.7 mm 4 mps 730 mmHg 92%
02:00 +7°C° 0.7 mm 5 mps 729 mmHg 94%
03:00 +8°C° 0.7 mm 7 mps 727 mmHg 96%
04:00 +7°C° 0.7 mm 8 mps 727 mmHg 91%
05:00 +7°C° 0.7 mm 10 mps 727 mmHg 86%
06:00 +6°C° 0.7 mm 11 mps 727 mmHg 81%
07:00 +6°C° 0 mm 10 mps 728 mmHg 80%
08:00 +6°C° 0 mm 10 mps 729 mmHg 79%
09:00 +5°C° 0 mm 9 mps 730 mmHg 78%
10:00 +6°C° 0 mm 9 mps 731 mmHg 74%
11:00 +7°C° 0 mm 10 mps 732 mmHg 71%
12:00 +7°C° 0 mm 10 mps 732 mmHg 67%
13:00 +7°C° 0.1 mm 9 mps 732 mmHg 70%
14:00 +7°C° 0.1 mm 9 mps 732 mmHg 72%
15:00 +7°C° 0.1 mm 8 mps 732 mmHg 74%
16:00 +6°C° 0 mm 7 mps 732 mmHg 77%
17:00 +6°C° 0 mm 7 mps 732 mmHg 79%
18:00 +5°C° 0 mm 6 mps 732 mmHg 81%
19:00 +5°C° 0.1 mm 6 mps 731 mmHg 83%
20:00 +5°C° 0.1 mm 6 mps 731 mmHg 86%
21:00 +6°C° 0.1 mm 5 mps 730 mmHg 88%
22:00 +6°C° 0.2 mm 5 mps 730 mmHg 90%
23:00 +6°C° 0.2 mm 4 mps 729 mmHg 92%

2 November, Monday

Time Temperature Precipitation Wind Pressure Humidity
00:00 +7°C° 0.2 mm 3 mps 729 mmHg 93%
01:00 +6°C° 0.1 mm 4 mps 729 mmHg 92%
02:00 +5°C° 0.1 mm 4 mps 728 mmHg 90%
03:00 +5°C° 0.1 mm 5 mps 728 mmHg 89%
04:00 +5°C° 0 mm 5 mps 728 mmHg 88%
05:00 +3°C° 0 mm 6 mps 728 mmHg 87%
06:00 +3°C° 0 mm 7 mps 728 mmHg 86%
07:00 +4°C° 0 mm 7 mps 728 mmHg 85%
08:00 +4°C° 0 mm 8 mps 728 mmHg 85%
09:00 +5°C° 0 mm 8 mps 728 mmHg 84%
10:00 +6°C° 0 mm 9 mps 729 mmHg 82%
11:00 +6°C° 0 mm 9 mps 729 mmHg 81%
12:00 +7°C° 0 mm 9 mps 729 mmHg 80%
13:00 +7°C° 0.1 mm 9 mps 729 mmHg 79%
14:00 +7°C° 0.1 mm 10 mps 729 mmHg 78%
15:00 +7°C° 0.1 mm 10 mps 729 mmHg 78%
16:00 +7°C° 0.1 mm 10 mps 730 mmHg 79%
17:00 +7°C° 0.1 mm 10 mps 730 mmHg 81%
18:00 +6°C° 0.1 mm 10 mps 730 mmHg 82%
19:00 +6°C° 0.1 mm 10 mps 731 mmHg 82%
20:00 +6°C° 0.1 mm 10 mps 732 mmHg 83%
21:00 +6°C° 0.1 mm 9 mps 733 mmHg 83%
22:00 +6°C° 0 mm 9 mps 734 mmHg 84%
23:00 +6°C° 0 mm 8 mps 736 mmHg 84%

3 November, Tuesday

Time Temperature Precipitation Wind Pressure Humidity
00:00 +5°C° 0 mm 8 mps 738 mmHg 84%
01:00 +5°C° 0 mm 7 mps 739 mmHg 84%
02:00 +5°C° 0 mm 7 mps 741 mmHg 84%
03:00 +5°C° 0 mm 6 mps 743 mmHg 84%
04:00 +4°C° 0 mm 6 mps 744 mmHg 84%
05:00 +5°C° 0 mm 5 mps 746 mmHg 84%
06:00 +3°C° 0 mm 5 mps 747 mmHg 84%
07:00 +4°C° 0 mm 4 mps 748 mmHg 84%
08:00 +4°C° 0 mm 4 mps 749 mmHg 84%
09:00 +4°C° 0 mm 3 mps 750 mmHg 85%
10:00 +7°C° 0 mm 3 mps 751 mmHg 80%
11:00 +7°C° 0 mm 4 mps 752 mmHg 75%
12:00 +8°C° 0 mm 4 mps 753 mmHg 71%
13:00 +8°C° 0 mm 4 mps 754 mmHg 72%
14:00 +8°C° 0 mm 4 mps 755 mmHg 73%
15:00 +9°C° 0 mm 3 mps 755 mmHg 74%
16:00 +7°C° 0 mm 3 mps 756 mmHg 77%
17:00 +5°C° 0 mm 3 mps 757 mmHg 81%
18:00 +4°C° 0 mm 3 mps 758 mmHg 84%
19:00 +3°C° 0 mm 3 mps 759 mmHg 85%
20:00 +3°C° 0 mm 3 mps 760 mmHg 86%
21:00 +3°C° 0 mm 3 mps 761 mmHg 86%
22:00 +3°C° 0 mm 3 mps 761 mmHg 86%
23:00 +3°C° 0 mm 3 mps 762 mmHg 86%
Show more